Vorticity
nan nan nan nan nan nan nan nan nan nan nan nan nan nan nan nan nan nan nan nan nan nan nan nan nan nan nan nan nan nan nan nan nan nan nan nan nan nan nan nan nan nan nan
nan 15 14 13 15 14 13 13 15 14 11 10 10 10 10 10 10 9 8 9 10 9 9 10 10 10 9 9 10 10 10 9 10 9 7 7 8 10 9 10 10 11 nan
nan 11 12 14 14 13 12 9 9 10 9 9 10 9 9 10 9 10 11 10 10 10 10 9 9 9 11 11 8 10 10 10 10 11 9 8 9 9 10 9 11 12 nan
nan 8 6 5 8 9 8 9 9 9 9 10 9 10 11 11 12 12 11 11 11 11 10 10 11 10 8 8 11 9 9 10 11 12 11 10 11 9 9 11 10 10 nan
nan 8 7 7 8 8 8 9 9 10 11 11 11 11 11 12 8 6 10 12 12 11 11 11 10 7 9 9 8 7 8 10 10 11 10 11 11 10 10 10 11 8 nan
nan 8 9 8 9 9 9 10 11 9 9 10 10 9 10 8 7 10 11 11 11 11 10 12 13 15 15 13 8 8 7 9 9 9 9 9 10 8 13 10 9 8 nan
nan 9 8 9 8 8 9 8 9 11 10 10 9 9 10 11 11 10 11 16 13 11 11 11 11 14 13 14 17 18 20 15 8 8 8 8 12 11 9 9 6 9 nan
nan 7 8 8 7 9 10 10 10 10 10 10 10 12 14 11 10 9 13 16 13 12 14 11 10 12 11 13 15 17 19 18 15 12 13 12 12 15 12 12 8 7 nan
nan 7 9 11 10 8 9 10 11 12 11 12 11 11 12 10 9 9 16 18 14 13 13 16 15 16 15 12 14 16 13 8 9 13 17 15 14 14 11 9 11 7 nan
nan 10 9 8 7 9 10 10 11 10 12 11 12 12 9 10 10 10 17 17 13 13 12 12 12 9 19 25 16 13 10 13 10 8 9 11 11 13 9 9 10 7 nan
nan 8 8 9 9 9 9 9 10 10 11 11 11 9 8 9 9 10 14 17 12 11 12 10 8 6 17 25 16 10 14 14 11 9 9 8 10 10 7 10 11 15 nan
nan 9 10 9 9 10 9 10 8 10 8 8 9 10 7 6 7 9 13 12 14 15 10 8 4 10 19 25 26 21 16 9 11 11 11 9 9 9 12 12 14 13 nan
nan 9 7 8 9 9 8 10 9 9 8 8 8 8 9 9 6 9 15 12 16 16 9 7 9 15 22 21 17 20 18 15 12 11 10 9 10 11 11 11 11 9 nan
nan 9 8 7 7 8 9 8 8 8 8 8 10 10 9 9 10 9 11 12 14 11 12 14 12 14 17 15 10 10 11 12 18 16 12 12 12 12 10 9 8 6 nan
nan 8 7 8 9 9 8 10 9 6 4 4 6 7 8 6 7 11 11 10 11 11 15 13 12 13 12 12 12 11 11 13 9 9 13 13 13 13 11 9 11 10 nan
nan 8 9 9 8 7 10 14 12 8 11 8 4 2 7 5 1 11 10 9 11 18 17 10 11 11 11 11 13 12 13 13 12 12 8 8 13 11 9 11 11 10 nan
nan 8 7 8 9 9 8 7 14 18 11 9 11 13 9 4 7 10 10 9 12 16 13 10 10 11 11 10 11 11 11 10 12 11 10 10 12 10 13 12 9 11 nan
nan 8 9 9 9 8 7 7 6 7 10 16 14 9 9 9 9 7 11 13 9 12 11 10 10 10 11 12 11 11 11 11 9 9 9 9 9 9 8 8 12 13 nan
nan 7 8 9 9 9 9 7 8 8 8 8 12 14 10 9 14 12 11 11 9 10 11 11 9 9 9 11 14 15 12 11 10 10 9 7 6 7 8 12 10 5 nan
nan 8 9 9 9 9 8 9 9 9 9 9 9 10 10 10 12 14 14 10 10 11 10 9 8 9 8 9 12 13 12 11 11 15 14 12 10 11 12 11 10 11 nan
nan 10 9 8 9 9 9 9 9 9 10 10 11 11 11 9 9 11 11 11 12 11 10 8 9 11 11 9 10 11 12 11 10 11 11 12 12 12 13 14 12 11 nan
nan 10 10 9 10 10 9 9 10 9 10 10 11 16 13 7 9 12 12 12 13 12 11 9 10 10 10 10 11 11 10 9 9 11 11 13 12 11 10 11 12 11 nan
nan 9 10 11 10 11 11 10 11 10 9 10 11 10 10 11 11 11 12 12 11 12 13 11 10 9 11 12 12 11 10 12 11 9 12 13 11 10 10 11 11 11 nan
nan 10 10 9 9 8 9 12 13 10 9 10 11 11 11 11 10 10 10 11 11 12 12 12 11 11 11 12 13 13 12 11 13 13 12 10 12 10 11 12 10 9 nan
nan 12 11 11 10 9 9 10 10 11 11 10 10 11 12 12 13 12 11 10 10 12 12 11 11 11 11 11 11 12 14 12 11 10 10 10 11 10 9 10 10 9 nan
nan nan nan nan nan nan nan nan nan nan nan nan nan nan nan nan nan nan nan nan nan nan nan nan nan nan nan nan nan nan nan nan nan nan nan nan nan nan nan nan nan nan nan
CAPE
798 923 1038 1239 1388 1598 1694 1981 2252 2389 2702 2963 2896 2619 2867 3105 3114 3174 3031 3228 3504 3653 3552 3697 4007 4042 3883 3382 2708 2652 2607 2812 2303 2286 1735 1318 1403 1529 1584 1332 1291 1326 1115
1154 1408 1550 1692 1798 1843 2124 2303 2202 2323 1691 1235 1093 1062 1037 1138 1200 1404 1740 2012 2337 2476 2796 3688 3963 3825 3682 3528 3035 2554 2492 2964 2788 3060 2579 1257 1520 1641 1564 1422 1113 819 983
2033 1871 1423 928 727 459 275 181 108 67 78 59 40 38 53 77 154 289 509 654 808 1016 1742 2331 2642 3464 3567 3181 3040 2703 2737 2670 2502 2550 2419 1573 1696 1597 1331 1151 974 858 723
434 19 0 2 16 1 0 0 0 0 0 0 0 0 0 0 0 0 0 88 290 528 1256 1674 2192 2534 2501 3022 3395 3192 2777 2619 2501 2471 2591 1979 1886 1591 1268 973 793 4 4
0 0 0 0 0 0 0 0 0 0 0 1 2 2 4 1 0 5 8 9 9 10 104 450 858 1367 1835 2235 2973 3393 3017 2423 2004 1924 1725 1463 1593 1042 1082 911 63 4 4
0 0 0 0 0 0 0 0 0 0 1 2 5 4 4 3 0 0 4 10 10 13 22 175 369 660 858 1333 1695 1828 2303 2371 1856 1467 1307 1224 1118 1237 1163 626 26 5 7
0 0 0 0 0 0 0 0 0 0 1 3 3 5 8 13 0 0 5 12 17 10 7 48 234 318 592 1096 1633 1343 1037 1294 1557 1599 1568 1227 1294 1219 858 519 49 1 22
0 0 0 0 0 1 1 1 3 3 4 4 4 1 11 9 0 0 2 7 8 12 11 6 318 388 787 1110 1585 1436 892 742 814 1308 1247 1197 1239 1129 1290 999 479 2 6
0 0 0 1 1 1 1 4 5 4 3 1 2 4 9 13 1 1 4 8 7 8 42 126 278 361 606 727 1050 1041 740 894 237 425 576 633 466 569 548 8 0 2 3
0 1 5 3 1 1 4 6 7 5 5 8 2 12 5 13 2 0 2 10 8 7 9 260 145 13 0 165 653 790 706 681 511 144 51 3 0 0 2 291 15 79 0
1 2 1 1 2 6 8 7 6 5 6 3 5 1 6 9 10 0 0 6 7 7 16 13 7 0 1 1 1 767 835 450 155 324 220 118 5 9 10 0 0 0 0
0 0 0 1 0 1 4 4 7 9 7 6 6 3 5 7 0 0 0 0 1 9 12 13 5 0 1 1 1 52 2 33 79 44 41 4 25 7 0 0 0 0 0
0 3 2 1 0 1 2 1 0 3 4 5 9 7 7 7 4 0 0 0 0 5 10 3 0 0 1 2 0 0 0 3 4 4 12 5 0 0 0 0 0 0 0
0 1 1 0 0 0 0 0 0 1 4 5 7 8 11 8 8 3 3 11 1 1 1 11 2 2 0 5 5 2 4 5 8 14 5 3 0 0 0 0 0 0 0
0 0 0 0 0 0 0 0 0 2 2 5 2 8 6 11 2 0 0 1 0 0 1 7 5 13 12 8 7 7 5 7 1 5 9 10 1 1 0 0 0 0 0
0 0 0 0 0 0 0 0 0 0 0 0 0 0 0 0 0 0 0 0 0 0 0 2 5 13 8 11 8 8 10 17 5 2 0 15 3 7 0 0 0 0 0
0 0 0 0 0 0 0 0 0 0 0 0 0 0 0 0 0 0 0 0 0 1 11 10 6 1 2 1 2 5 3 3 2 5 5 6 0 29 90 61 57 29 0
0 0 0 0 0 0 0 0 0 0 0 0 0 0 0 0 0 0 0 8 35 7 27 30 41 39 9 2 0 0 3 10 1 2 3 1 3 10 10 22 71 150 81
0 0 0 0 0 0 0 0 0 0 0 0 0 0 0 0 0 0 0 41 38 37 12 23 17 58 42 68 3 1 32 36 26 13 3 16 18 13 32 56 57 18 66
0 0 0 0 0 0 0 0 0 0 0 5 10 23 11 16 49 44 53 69 104 142 74 72 72 27 146 193 146 110 73 107 124 93 92 73 89 110 71 94 136 127 112
0 0 0 0 0 0 1 6 6 9 12 8 16 10 0 1 41 71 97 97 112 147 202 242 149 133 189 276 468 393 63 21 34 37 61 99 120 127 162 137 80 47 36
10 13 11 11 16 9 14 16 28 20 24 40 42 37 0 9 75 104 130 119 135 141 159 259 265 397 253 200 344 408 159 126 289 132 92 28 63 58 52 43 38 26 24
9 67 25 35 14 4 41 59 55 71 82 64 63 76 60 85 93 111 159 158 199 198 199 219 207 114 279 334 403 272 335 273 210 146 132 129 81 72 74 54 12 11 19
83 136 124 146 2 43 165 204 263 45 69 67 61 111 140 204 138 126 193 203 244 248 258 279 290 357 350 338 318 406 393 267 256 34 2 54 22 65 69 70 74 77 69
467 376 243 199 81 208 324 389 288 220 114 48 62 107 184 221 220 178 195 237 245 211 251 253 296 371 364 324 325 287 0 0 64 1 143 138 76 161 120 68 10 0 0
610 614 577 508 246 225 234 235 119 138 59 112 115 203 325 326 160 272 284 280 276 280 308 314 323 361 317 292 266 19 0 0 0 0 131 156 100 9 0 0 0 0 0